FW0613 Weather Reports


Display with metric or nautical units.
time (UTC)temp
F
wind
direction
speed
MPH
gust
MPH
rain 1hr
in
rain 24hr
in
rain mn
in
humidity
%
barometer
mb
20190420010325 65 339 0.0 3.0 0.00 0.00 0.00 52 1019.1
20190420010209 66 339 0.0 4.0 0.00 0.00 0.00 51 1018.5
20190420005833 67 339 1.0 4.0 0.00 0.00 0.00 48 1019.2
20190420005330 67 342 1.0 4.0 0.00 0.00 0.00 46 1019.0
20190420004818 69 349 1.0 4.0 0.00 0.00 0.00 42 1019.0
20190420004557 69 349 1.0 5.0 0.00 0.00 0.00 42 1018.4
20190420004335 70 341 2.0 5.0 0.00 0.00 0.00 41 1019.0
20190420003824 70 310 2.0 8.0 0.00 0.00 0.00 38 1019.1
20190420003321 71 343 2.0 8.0 0.00 0.00 0.00 38 1019.0
20190420003125 70 323 2.0 8.0 0.00 0.00 0.00 38 1018.4
20190420002829 71 5 3.0 8.0 0.00 0.00 0.00 37 1019.0
20190420002325 72 340 3.0 10.0 0.00 0.00 0.00 37 1019.2
20190420001828 72 327 5.0 10.0 0.00 0.00 0.00 35 1019.1
20190420001529 72 350 3.0 9.0 0.00 0.00 0.00 36 1018.4
20190420001325 72 355 4.0 9.0 0.00 0.00 0.00 34 1019.1
20190420000829 73 40 3.0 8.0 0.00 0.00 0.00 35 1019.2
20190420000318 73 348 3.0 13.0 0.00 0.00 0.00 34 1019.0
20190420000055 73 330 3.0 13.0 0.00 0.00 0.00 33 1018.4
20190419235836 73 355 6.0 13.0 0.00 0.00 0.00 33 1019.2
20190419235323 74 5 4.0 9.0 0.00 0.00 0.00 33 1019.0
20190419234822 74 17 5.0 11.0 0.00 0.00 0.00 32 1018.9
20190419234622 73 329 3.0 11.0 0.00 0.00 0.00 33 1018.3
20190419234329 74 274 5.0 11.0 0.00 0.00 0.00 32 1019.0
20190419233825 74 5 3.0 10.0 0.00 0.00 0.00 33 1019.0
20190419233332 74 61 4.0 11.0 0.00 0.00 0.00 33 1019.0
20190419233036 74 340 5.0 11.0 0.00 0.00 0.00 33 1018.3
20190419232829 74 321 3.0 11.0 0.00 0.00 0.00 33 1019.0
20190419232316 75 355 6.0 10.0 0.00 0.00 0.00 32 1019.1
20190419231831 75 30 3.0 8.0 0.00 0.00 0.00 33 1019.0
20190419231706 74 360 3.0 14.0 0.00 0.00 0.00 32 1018.3
20190419231318 75 9 3.0 14.0 0.00 0.00 0.00 35 1019.2
20190419230834 75 59 4.0 14.0 0.00 0.00 0.00 32 1019.1
20190419230324 75 316 3.0 10.0 0.00 0.00 0.00 32 1019.0
20190419225830 75 5 4.0 10.0 0.00 0.00 0.00 32 1019.2
20190419225327 75 355 2.0 8.0 0.00 0.00 0.00 32 1019.3
20190419224835 76 323 3.0 13.0 0.00 0.00 0.00 33 1019.3
20190419224608 75 344 2.0 13.0 0.00 0.00 0.00 32 1018.5
20190419224331 75 350 5.0 16.0 0.00 0.00 0.00 31 1019.3
20190419223820 75 30 7.0 16.0 0.00 0.00 0.00 30 1019.3
20190419223337 76 346 5.0 11.0 0.00 0.00 0.00 31 1019.2
20190419223228 75 350 4.0 11.0 0.00 0.00 0.00 31 1018.5
20190419222824 75 302 5.0 11.0 0.00 0.00 0.00 31 1019.3
20190419222321 75 323 6.0 17.0 0.00 0.00 0.00 30 1019.3
20190419221829 75 55 6.0 17.0 0.00 0.00 0.00 31 1019.4
20190419221614 75 30 5.0 12.0 0.00 0.00 0.00 31 1018.7
20190419221326 76 5 5.0 12.0 0.00 0.00 0.00 30 1019.5
20190419220833 76 322 4.0 13.0 0.00 0.00 0.00 30 1019.5
20190419220323 76 244 5.0 13.0 0.00 0.00 0.00 29 1019.7
20190419220106 76 285 4.0 16.0 0.00 0.00 0.00 33 1019.1
20190419215837 76 323 4.0 16.0 0.00 0.00 0.00 30 1019.7
20190419215323 76 340 7.0 16.0 0.00 0.00 0.00 29 1019.7
20190419214841 76 355 6.0 15.0 0.00 0.00 0.00 31 1019.8
20190419214326 75 200 4.0 14.0 0.00 0.00 0.00 32 1019.8
20190419213823 75 20 5.0 14.0 0.00 0.00 0.00 31 1019.9
20190419213326 76 313 6.0 15.0 0.00 0.00 0.00 30 1019.9
20190419213056 75 53 3.0 15.0 0.00 0.00 0.00 32 1019.2
20190419212824 76 348 7.0 15.0 0.00 0.00 0.00 30 1019.9
20190419212330 75 310 6.0 12.0 0.00 0.00 0.00 29 1020.0
20190419211826 76 344 6.0 13.0 0.00 0.00 0.00 29 1019.9
20190419211625 75 274 4.0 13.0 0.00 0.00 0.00 30 1019.3
20190419211332 76 337 4.0 13.0 0.00 0.00 0.00 30 1020.0
20190419210828 76 11 6.0 14.0 0.00 0.00 0.00 30 1019.9
20190419210338 76 296 5.0 14.0 0.00 0.00 0.00 30 1020.1
20190419210010 75 53 4.0 15.0 0.00 0.00 0.00 30 1019.3
20190419205824 76 360 3.0 15.0 0.00 0.00 0.00 30 1020.0
20190419205339 75 271 5.0 16.0 0.00 0.00 0.00 30 1020.1
20190419204823 75 327 9.0 16.0 0.00 0.00 0.00 29 1020.1
20190419204600 75 340 5.0 17.0 0.00 0.00 0.00 30 1019.6
20190419204339 75 355 5.0 18.0 0.00 0.00 0.00 31 1020.2
20190419203827 75 360 9.0 18.0 0.00 0.00 0.00 30 1020.4
20190419203325 75 16 9.0 17.0 0.00 0.00 0.00 28 1020.4
20190419202832 75 355 7.0 18.0 0.00 0.00 0.00 30 1020.3
20190419202330 74 317 10.0 21.0 0.00 0.00 0.00 29 1020.3
20190419201818 75 355 10.0 21.0 0.00 0.00 0.00 31 1020.6
20190419201544 74 327 3.0 19.0 0.00 0.00 0.00 31 1019.8
20190419201335 75 355 6.0 19.0 0.00 0.00 0.00 31 1020.5
20190419200821 75 341 5.0 13.0 0.00 0.00 0.00 32 1020.8
20190419200332 75 5 7.0 15.0 0.00 0.00 0.00 30 1020.7
20190419200100 74 28 4.0 16.0 0.00 0.00 0.00 33 1020.1
20190419195816 74 5 8.0 16.0 0.00 0.00 0.00 32 1020.9
20190419195331 74 322 9.0 20.0 0.00 0.00 0.00 31 1020.8
20190419194830 74 5 9.0 20.0 0.00 0.00 0.00 32 1020.9
20190419194503 74 350 6.0 19.0 0.00 0.00 0.00 32 1020.3
20190419194316 74 343 8.0 19.0 0.00 0.00 0.00 31 1020.9
20190419193831 74 53 7.0 19.0 0.00 0.00 0.00 32 1020.9
20190419193320 74 323 9.0 18.0 0.00 0.00 0.00 31 1021.1
20190419193137 73 304 5.0 18.0 0.00 0.00 0.00 34 1020.4
20190419192835 74 306 8.0 18.0 0.00 0.00 0.00 33 1021.1
20190419192322 74 346 8.0 17.0 0.00 0.00 0.00 33 1021.1
20190419191819 74 327 6.0 16.0 0.00 0.00 0.00 32 1021.2
20190419191757 73 299 9.0 16.0 0.00 0.00 0.00 33 1020.6
20190419191326 74 340 8.0 16.0 0.00 0.00 0.00 32 1021.2
20190419190819 73 336 8.0 16.0 0.00 0.00 0.00 34 1021.4
20190419190325 73 360 8.0 14.0 0.00 0.00 0.00 33 1021.4
20190419190002 73 24 7.0 14.0 0.00 0.00 0.00 35 1020.8
20190419185832 73 315 6.0 14.0 0.00 0.00 0.00 35 1021.5
20190419185330 73 298 8.0 18.0 0.00 0.00 0.00 32 1021.5
20190419184818 73 333 10.0 18.0 0.00 0.00 0.00 32 1021.7
20190419184541 72 327 8.0 18.0 0.00 0.00 0.00 32 1021.1
20190419184335 73 246 9.0 18.0 0.00 0.00 0.00 32 1021.8
20190419183823 73 15 6.0 18.0 0.00 0.00 0.00 35 1022.0
20190419183321 72 315 7.0 20.0 0.00 0.00 0.00 32 1021.9
20190419183251 72 331 6.0 20.0 0.00 0.00 0.00 32 1021.3
20190419182825 73 5 8.0 15.0 0.00 0.00 0.00 32 1022.0
20190419182320 73 348 6.0 20.0 0.00 0.00 0.00 33 1022.0
20190419181825 73 239 9.0 20.0 0.00 0.00 0.00 32 1022.2
20190419181550 72 343 6.0 17.0 0.00 0.00 0.00 31 1021.6
20190419181320 72 327 7.0 17.0 0.00 0.00 0.00 32 1022.2
20190419180826 72 320 10.0 17.0 0.00 0.00 0.00 32 1022.2
20190419180333 72 257 7.0 14.0 0.00 0.00 0.00 36 1022.3
20190419180058 71 307 6.0 14.0 0.00 0.00 0.00 34 1021.8
20190419175827 72 19 7.0 14.0 0.00 0.00 0.00 35 1022.4
20190419175334 72 355 7.0 16.0 0.00 0.00 0.00 33 1022.4
20190419174828 72 311 8.0 16.0 0.00 0.00 0.00 32 1022.5
20190419174652 71 40 4.0 16.0 0.00 0.00 0.00 33 1021.9
20190419174342 72 319 8.0 18.0 0.00 0.00 0.00 34 1022.6
20190419173826 71 284 5.0 22.0 0.00 0.00 0.00 35 1022.6
20190419173340 71 342 9.0 22.0 0.00 0.00 0.00 32 1022.7
20190419173007 71 321 8.0 19.0 0.00 0.00 0.00 31 1022.0
20190419172824 71 334 10.0 19.0 0.00 0.00 0.00 32 1022.7
20190419172339 71 24 9.0 17.0 0.00 0.00 0.00 33 1022.6
20190419171823 71 270 8.0 17.0 0.00 0.00 0.00 33 1022.7
20190419171608 70 355 10.0 17.0 0.00 0.00 0.00 32 1022.0
20190419171336 71 287 9.0 17.0 0.00 0.00 0.00 33 1022.7
20190419170820 71 276 9.0 20.0 0.00 0.00 0.00 32 1022.7
20190419170328 70 355 9.0 20.0 0.00 0.00 0.00 33 1022.7
20190419170106 70 322 8.0 18.0 0.00 0.00 0.00 33 1022.1
20190419165838 70 16 10.0 18.0 0.00 0.00 0.00 33 1022.8
20190419165321 70 360 7.0 19.0 0.00 0.00 0.00 34 1022.8
20190419164816 70 344 10.0 19.0 0.00 0.00 0.00 33 1022.8
20190419164702 69 56 8.0 18.0 0.00 0.00 0.00 33 1022.2
20190419164320 70 342 9.0 17.0 0.00 0.00 0.00 33 1022.9
20190419163815 70 313 7.0 19.0 0.00 0.00 0.00 34 1022.8
20190419163319 69 326 11.0 19.0 0.00 0.00 0.00 32 1023.0
20190419163017 69 13 8.0 16.0 0.00 0.00 0.00 33 1022.3
20190419162833 70 346 9.0 16.0 0.00 0.00 0.00 34 1022.9
20190419162317 69 325 7.0 17.0 0.00 0.00 0.00 35 1022.8
20190419161832 69 336 10.0 17.0 0.00 0.00 0.00 35 1022.8
20190419161600 69 349 6.0 17.0 0.00 0.00 0.00 37 1022.2
20190419161325 69 322 6.0 19.0 0.00 0.00 0.00 35 1022.8
20190419160829 69 345 8.0 19.0 0.00 0.00 0.00 34 1022.8
20190419160315 69 338 8.0 18.0 0.00 0.00 0.00 34 1022.9
20190419160109 68 10 7.0 15.0 0.00 0.00 0.00 34 1022.2
20190419155825 69 324 6.0 14.0 0.00 0.00 0.00 35 1022.8
20190419155328 69 355 6.0 16.0 0.00 0.00 0.00 36 1022.8
20190419154821 68 325 6.0 17.0 0.00 0.00 0.00 37 1022.7
20190419154647 68 15 7.0 18.0 0.00 0.00 0.00 36 1022.0
20190419154324 68 346 8.0 18.0 0.00 0.00 0.00 35 1022.8
20190419153817 68 355 9.0 18.0 0.00 0.00 0.00 35 1022.8
20190419153332 68 323 7.0 20.0 0.00 0.00 0.00 38 1022.7
20190419153008 67 287 9.0 20.0 0.00 0.00 0.00 36 1022.0
20190419152817 68 342 8.0 16.0 0.00 0.00 0.00 37 1022.6
20190419152331 67 5 7.0 16.0 0.00 0.00 0.00 37 1022.5
20190419151834 68 34 6.0 14.0 0.00 0.00 0.00 39 1022.6
20190419151554 67 346 4.0 14.0 0.00 0.00 0.00 42 1021.8
20190419151326 67 302 7.0 17.0 0.00 0.00 0.00 40 1022.5
20190419150830 66 307 6.0 17.0 0.00 0.00 0.00 41 1022.4
20190419150318 65 315 7.0 17.0 0.00 0.00 0.00 38 1022.4
20190419150109 65 5 10.0 17.0 0.00 0.01 0.00 38 1021.7
20190419145828 66 342 9.0 17.0 0.00 0.01 0.00 39 1022.3
20190419145331 66 340 6.0 13.0 0.00 0.01 0.00 42 1022.2
20190419144824 65 350 6.0 15.0 0.00 0.01 0.00 44 1022.2
20190419144655 64 328 7.0 19.0 0.00 0.01 0.00 42 1021.7
20190419144327 65 345 8.0 19.0 0.00 0.01 0.00 44 1022.2
20190419143821 65 313 9.0 19.0 0.00 0.01 0.00 44 1022.2
20190419143335 64 355 5.0 19.0 0.00 0.01 0.00 46 1022.2
20190419143003 64 30 5.0 19.0 0.00 0.01 0.00 48 1021.5
20190419142818 64 355 7.0 19.0 0.00 0.01 0.00 47 1022.0
20190419142331 64 279 6.0 15.0 0.00 0.01 0.00 49 1021.9
20190419141815 63 325 6.0 15.0 0.00 0.01 0.00 50 1021.9
20190419141544 62 360 5.0 15.0 0.00 0.01 0.00 51 1021.3
20190419141329 63 337 6.0 15.0 0.00 0.01 0.00 52 1021.8
20190419140843 62 327 5.0 12.0 0.00 0.01 0.00 53 1021.7
20190419140320 62 320 3.0 9.0 0.00 0.01 0.00 59 1021.7
20190419140054 61 331 4.0 12.0 0.00 0.01 0.00 59 1021.0
20190419135815 61 349 3.0 12.0 0.00 0.01 0.00 59 1021.6
20190419135318 61 330 4.0 12.0 0.00 0.01 0.00 61 1021.7
20190419134831 60 318 2.0 9.0 0.00 0.01 0.00 63 1021.5
20190419134643 59 324 1.0 9.0 0.00 0.01 0.00 62 1020.9
20190419134344 59 279 4.0 9.0 0.00 0.01 0.00 62 1021.5
20190419133828 59 321 3.0 8.0 0.00 0.01 0.00 62 1021.5
20190419133341 59 360 3.0 8.0 0.00 0.01 0.00 61 1021.3
20190419132824 59 335 2.0 8.0 0.00 0.01 0.00 65 1021.2
20190419132319 58 330 2.0 8.0 0.00 0.01 0.00 65 1021.2
20190419131822 58 294 3.0 8.0 0.00 0.01 0.00 64 1021.1
20190419131542 57 355 3.0 8.0 0.00 0.01 0.00 64 1020.6
20190419131315 58 334 2.0 8.0 0.00 0.01 0.00 67 1021.1
20190419130821 57 323 4.0 8.0 0.00 0.01 0.00 67 1020.9
20190419130320 57 360 4.0 8.0 0.00 0.01 0.00 67 1020.7
20190419130042 56 326 4.0 8.0 0.00 0.01 0.00 67 1020.0
20190419125833 56 337 3.0 8.0 0.00 0.01 0.00 68 1020.6
20190419125317 56 347 3.0 8.0 0.00 0.01 0.00 70 1020.6
20190419124827 55 360 3.0 6.0 0.00 0.01 0.00 71 1020.4
20190419124624 54 317 2.0 9.0 0.00 0.01 0.00 73 1019.8
20190419124341 55 342 3.0 9.0 0.00 0.01 0.00 72 1020.4
20190419123825 54 351 4.0 6.0 0.00 0.01 0.00 75 1020.4
20190419123318 53 339 3.0 6.0 0.00 0.01 0.00 76 1020.0
20190419123139 53 349 2.0 6.0 0.00 0.01 0.00 76 1019.4
20190419122824 53 355 3.0 6.0 0.00 0.01 0.00 76 1019.9
20190419122321 53 333 2.0 9.0 0.00 0.01 0.00 74 1019.7
20190419121826 53 11 3.0 9.0 0.00 0.01 0.00 73 1019.8
20190419121533 52 351 2.0 8.0 0.00 0.01 0.00 74 1019.3
20190419121321 53 345 2.0 6.0 0.00 0.01 0.00 74 1019.9
20190419120836 53 360 3.0 6.0 0.00 0.01 0.00 75 1019.9
20190419120334 53 355 2.0 8.0 0.00 0.01 0.00 75 1019.7
20190419120038 52 360 2.0 8.0 0.00 0.01 0.00 77 1019.0
20190419115830 53 9 3.0 8.0 0.00 0.01 0.00 77 1019.7
20190419115343 52 360 3.0 6.0 0.00 0.01 0.00 77 1019.6
20190419114831 51 355 4.0 6.0 0.00 0.01 0.00 83 1019.5
20190419114723 50 343 1.0 5.0 0.00 0.01 0.00 84 1018.8
20190419114317 50 344 1.0 5.0 0.00 0.01 0.00 84 1019.4
20190419113833 50 342 2.0 5.0 0.00 0.01 0.00 85 1019.4
20190419113319 50 355 2.0 4.0 0.00 0.01 0.00 86 1019.4
20190419113025 49 355 1.0 4.0 0.00 0.01 0.00 85 1018.6
20190419112815 50 355 0.0 4.0 0.00 0.01 0.00 84 1019.0
20190419112333 51 355 2.0 5.0 0.00 0.01 0.00 84 1019.3
20190419111820 50 355 2.0 5.0 0.00 0.01 0.00 86 1019.3
20190419111601 50 355 1.0 3.0 0.00 0.01 0.00 85 1018.8
20190419111334 51 344 1.0 3.0 0.00 0.01 0.00 83 1019.1
20190419110821 51 344 1.0 3.0 0.00 0.01 0.00 83 1018.9
20190419110330 51 344 1.0 3.0 0.00 0.01 0.00 83 1019.1
20190419110106 50 344 0.0 3.0 0.00 0.01 0.00 82 1018.4
20190419105818 51 344 1.0 3.0 0.00 0.01 0.00 82 1019.0
20190419105315 51 344 2.0 8.0 0.00 0.01 0.00 82 1019.0
20190419104819 51 355 2.0 8.0 0.00 0.01 0.00 83 1018.9
20190419104532 50 342 2.0 6.0 0.00 0.01 0.00 84 1018.2
20190419104316 51 351 1.0 5.0 0.00 0.01 0.00 84 1018.8
20190419103824 50 360 2.0 5.0 0.00 0.01 0.00 85 1018.9
20190419103321 50 342 2.0 4.0 0.00 0.01 0.00 87 1018.8
20190419103155 49 344 2.0 4.0 0.00 0.01 0.00 87 1018.3
20190419102829 50 5 1.0 3.0 0.00 0.01 0.00 87 1018.9
20190419102326 51 5 0.0 2.0 0.00 0.01 0.00 87 1018.8
20190419101843 51 5 1.0 2.0 0.00 0.01 0.00 84 1018.8
20190419101555 51 5 0.0 4.0 0.00 0.01 0.00 83 1018.2
20190419101331 52 5 0.0 4.0 0.00 0.01 0.00 82 1018.8
20190419100818 52 5 1.0 4.0 0.00 0.01 0.00 80 1018.9
20190419100328 53 355 1.0 2.0 0.00 0.01 0.00 78 1018.8
20190419100107 52 355 0.0 3.0 0.00 0.01 0.00 78 1018.2
20190419095825 53 355 1.0 3.0 0.00 0.01 0.00 78 1018.9
20190419095333 53 355 1.0 3.0 0.00 0.01 0.00 79 1018.9
20190419094830 53 355 1.0 5.0 0.00 0.01 0.00 77 1018.9
20190419094316 53 355 2.0 5.0 0.00 0.01 0.00 79 1018.7
20190419093829 52 350 1.0 4.0 0.00 0.01 0.00 82 1018.6
20190419093343 51 336 1.0 4.0 0.00 0.01 0.00 84 1018.7
20190419093038 51 317 1.0 3.0 0.00 0.01 0.00 86 1018.1
20190419092827 51 312 0.0 2.0 0.00 0.01 0.00 86 1018.6
20190419092342 51 312 1.0 3.0 0.00 0.01 0.00 88 1018.6
20190419091828 50 311 1.0 3.0 0.00 0.01 0.00 91 1018.6
20190419091713 49 305 0.0 3.0 0.00 0.01 0.00 92 1017.9
20190419091316 49 300 1.0 3.0 0.00 0.01 0.00 93 1018.6
20190419090832 49 355 1.0 2.0 0.00 0.01 0.00 93 1018.5
20190419090323 48 355 0.0 1.0 0.00 0.01 0.00 94 1018.6
20190419090200 47 355 0.0 1.0 0.00 0.04 0.00 94 1017.9
20190419085831 48 355 0.0 2.0 0.00 0.04 0.00 93 1018.7
20190419085327 47 355 0.0 3.0 0.00 0.04 0.00 93 1018.7
20190419084816 47 350 0.0 1.0 0.00 0.04 0.00 93 1018.6
20190419084556 47 350 0.0 1.0 0.00 0.04 0.00 93 1018.0
20190419084331 47 350 0.0 0.0 0.00 0.04 0.00 93 1018.7
20190419083819 48 350 0.0 1.0 0.00 0.04 0.00 92 1018.7
20190419083315 48 350 0.0 1.0 0.00 0.04 0.00 93 1018.7
20190419083214 47 350 0.0 0.0 0.00 0.04 0.00 93 1018.1
20190419082823 48 350 0.0 0.0 0.00 0.04 0.00 93 1018.9
20190419082319 48 350 0.0 0.0 0.00 0.04 0.00 92 1018.8
20190419081824 48 350 0.0 1.0 0.00 0.04 0.00 92 1018.7
20190419081550 48 350 0.0 1.0 0.00 0.04 0.00 92 1017.9
20190419081322 48 350 0.0 1.0 0.00 0.04 0.00 92 1018.6
20190419080830 48 350 0.0 1.0 0.00 0.04 0.00 92 1018.6
20190419080320 48 350 0.0 1.0 0.00 0.04 0.00 92 1018.6
20190419080056 48 350 0.0 1.0 0.00 0.08 0.00 93 1017.8
20190419075836 48 350 0.0 1.0 0.00 0.08 0.00 93 1018.7
20190419075323 48 350 0.0 1.0 0.00 0.08 0.00 92 1018.7
20190419074821 48 350 0.0 1.0 0.00 0.08 0.00 92 1018.9
20190419074641 48 350 0.0 1.0 0.00 0.08 0.00 92 1018.3
20190419074328 48 350 0.0 1.0 0.00 0.08 0.00 92 1019.0
20190419073824 48 350 0.0 2.0 0.00 0.08 0.00 92 1019.1
20190419073332 49 350 1.0 2.0 0.00 0.08 0.00 91 1019.0
20190419073040 49 350 0.0 1.0 0.00 0.08 0.00 91 1018.4
20190419072827 49 350 0.0 1.0 0.00 0.08 0.00 91 1019.2
20190419072315 50 350 0.0 0.0 0.00 0.08 0.00 91 1019.2
20190419071831 50 350 0.0 1.0 0.00 0.08 0.00 90 1019.2
20190419071634 50 350 0.0 1.0 0.00 0.08 0.00 91 1018.4
20190419071318 51 350 0.0 2.0 0.00 0.08 0.00 91 1019.2
20190419070816 51 350 0.0 2.0 0.00 0.08 0.00 90 1019.2
20190419070326 51 350 1.0 3.0 0.00 0.08 0.00 91 1019.3
20190419070001 50 350 1.0 3.0 0.00 0.18 0.00 90 1018.5
20190419065832 51 350 1.0 3.0 0.00 0.18 0.00 90 1019.1
20190419065328 51 5 1.0 4.0 0.00 0.18 0.00 90 1019.0
20190419064832 51 360 2.0 4.0 0.00 0.18 0.00 92 1019.3
20190419064610 50 331 1.0 8.0 0.00 0.18 0.00 93 1018.5
20190419064327 50 342 2.0 8.0 0.00 0.18 0.00 94 1019.2
20190419063831 49 355 3.0 8.0 0.00 0.18 0.00 95 1019.2
20190419063325 47 321 1.0 2.0 0.00 0.18 0.00 94 1018.9
20190419063138 46 342 0.0 0.0 0.00 0.18 0.00 94 1018.1
20190419062840 47 342 0.0 0.0 0.00 0.18 0.00 94 1018.7
20190419062327 47 342 0.0 0.0 0.00 0.18 0.00 94 1018.6
20190419061842 47 342 0.0 0.0 0.00 0.18 0.00 94 1018.6
20190419061516 47 342 0.0 1.0 0.00 0.18 0.00 94 1017.8
20190419061330 47 342 0.0 1.0 0.00 0.18 0.00 94 1018.4
20190419060818 47 342 0.0 1.0 0.00 0.18 0.00 93 1018.4
20190419060327 47 342 0.0 0.0 0.00 0.18 0.00 93 1018.6
20190419060040 47 342 0.0 0.0 0.00 0.47 0.00 93 1017.8
20190419055819 47 342 0.0 0.0 0.00 0.47 0.00 93 1018.7
20190419055322 48 342 0.0 0.0 0.00 0.47 0.00 93 1018.8
20190419054816 48 342 0.0 0.0 0.00 0.47 0.00 94 1018.6
20190419054620 47 342 0.0 0.0 0.00 0.47 0.00 94 1017.8
20190419054320 48 342 0.0 0.0 0.00 0.47 0.00 94 1018.5
20190419053816 48 342 0.0 0.0 0.00 0.47 0.00 93 1018.5
20190419053331 47 342 0.0 0.0 0.00 0.47 0.00 93 1018.4
20190419053012 47 342 0.0 0.0 0.00 0.47 0.00 93 1017.5
20190419052820 47 342 0.0 0.0 0.00 0.47 0.00 93 1018.4
20190419052334 48 342 0.0 0.0 0.00 0.47 0.00 93 1018.3
20190419051821 48 342 0.0 0.0 0.00 0.47 0.00 93 1018.5
20190419051619 47 342 0.0 0.0 0.00 0.47 0.00 92 1017.7
20190419051337 48 342 0.0 0.0 0.00 0.47 0.00 93 1018.5
20190419050823 48 342 0.0 0.0 0.00 0.47 0.00 92 1018.4
20190419050330 48 342 0.0 0.0 0.00 0.47 0.00 92 1018.4
20190419050134 48 342 0.0 0.0 0.00 0.49 0.47 93 1017.5
20190419045817 48 342 0.0 0.0 0.00 0.49 0.47 92 1018.3
20190419045330 48 342 0.0 0.0 0.00 0.49 0.47 92 1018.2
20190419044824 48 342 0.0 0.0 0.00 0.49 0.47 92 1018.2
20190419044700 48 342 0.0 0.0 0.00 0.49 0.47 92 1017.3
20190419044328 48 342 0.0 0.0 0.00 0.49 0.47 92 1018.1
20190419043825 49 342 0.0 0.0 0.00 0.49 0.47 92 1018.0
20190419043331 49 342 0.0 0.0 0.00 0.49 0.47 91 1018.0
20190419043032 48 342 0.0 0.0 0.00 0.49 0.47 92 1017.1
20190419042826 49 342 0.0 0.0 0.00 0.49 0.47 91 1018.0
20190419042344 49 342 0.0 0.0 0.00 0.49 0.47 91 1017.9
20190419041827 49 342 0.0 0.0 0.00 0.49 0.47 90 1018.0
20190419041700 49 342 0.0 0.0 0.00 0.49 0.47 91 1017.1
20190419041342 50 342 0.0 0.0 0.00 0.49 0.47 90 1018.1
20190419040826 50 342 0.0 0.0 0.00 0.49 0.47 90 1018.0
20190419040332 50 342 0.0 0.0 0.00 0.49 0.47 90 1017.9
20190419040141 50 342 0.0 0.0 0.00 0.50 0.47 90 1017.0
20190419035820 51 342 0.0 0.0 0.00 0.50 0.47 90 1017.9
20190419035317 51 342 0.0 0.0 0.00 0.50 0.47 90 1017.7
20190419034821 51 342 0.0 0.0 0.00 0.50 0.47 90 1017.7
20190419034550 50 342 0.0 0.0 0.00 0.50 0.47 90 1016.9
20190419034318 51 342 0.0 0.0 0.00 0.50 0.47 89 1017.9
20190419033821 51 342 0.0 0.0 0.00 0.50 0.47 89 1017.8
20190419033319 51 342 0.0 0.0 0.00 0.50 0.47 88 1017.7
20190419033114 51 342 0.0 0.0 0.00 0.50 0.47 88 1016.8
20190419032821 51 342 0.0 0.0 0.00 0.50 0.47 88 1017.8
20190419032314 52 342 0.0 0.0 0.00 0.50 0.47 87 1017.8
20190419031830 52 342 0.0 0.0 0.00 0.50 0.47 87 1017.7
20190419031504 52 342 0.0 0.0 0.00 0.50 0.47 86 1016.7
20190419031317 52 342 0.0 0.0 0.00 0.50 0.47 86 1017.7
20190419030829 53 342 0.0 0.0 0.00 0.50 0.47 86 1017.7
20190419030337 53 342 0.0 0.0 0.00 0.50 0.47 86 1017.8
20190419030016 52 342 0.0 0.0 0.00 0.50 0.47 85 1016.8
20190419025823 53 342 0.0 0.0 0.00 0.50 0.47 85 1017.9
20190419025335 53 342 0.0 0.0 0.00 0.50 0.47 84 1018.0
20190419024822 54 342 0.0 0.0 0.00 0.50 0.47 83 1018.0
20190419024617 53 342 0.0 0.0 0.00 0.50 0.47 83 1016.9
20190419024317 54 342 0.0 0.0 0.00 0.50 0.47 82 1017.9
20190419023820 55 342 0.0 0.0 0.00 0.50 0.47 81 1017.9
20190419023315 55 342 0.0 0.0 0.00 0.50 0.47 79 1017.7
20190419023125 55 342 0.0 0.0 0.00 0.50 0.47 79 1016.6
20190419022821 56 342 0.0 0.0 0.00 0.50 0.47 79 1017.6
20190419022317 56 342 0.0 0.0 0.00 0.50 0.47 79 1017.6
20190419021822 56 342 0.0 0.0 0.00 0.50 0.47 77 1017.5
20190419021514 56 342 0.0 0.0 0.00 0.50 0.47 76 1016.4
20190419021320 57 342 0.0 0.0 0.00 0.50 0.47 75 1017.4
20190419020836 58 342 0.0 0.0 0.00 0.50 0.47 73 1017.4
20190419020316 59 342 0.0 0.0 0.00 0.50 0.47 69 1017.4
20190419020105 59 342 0.0 0.0 0.00 0.50 0.47 69 1016.3
20190419015832 60 342 0.0 0.0 0.00 0.50 0.47 67 1017.3
20190419015317 61 342 0.0 1.0 0.00 0.50 0.47 64 1017.2
20190419014833 62 342 0.0 1.0 0.00 0.50 0.47 57 1017.1
20190419014702 62 342 0.0 2.0 0.00 0.50 0.47 55 1015.9
20190419014319 63 342 0.0 3.0 0.00 0.50 0.47 56 1017.0
20190419013814 64 342 1.0 4.0 0.00 0.50 0.47 53 1016.9
20190419013320 65 344 1.0 8.0 0.00 0.50 0.47 50 1016.8
20190419013038 65 345 2.0 8.0 0.00 0.50 0.47 48 1015.7
20190419012817 66 350 2.0 8.0 0.00 0.50 0.47 49 1016.7
20190419012317 66 355 2.0 8.0 0.00 0.50 0.47 48 1016.6
20190419011833 67 300 1.0 8.0 0.00 0.50 0.47 49 1016.5
20190419011610 66 324 3.0 8.0 0.00 0.50 0.47 48 1015.3
20190419011326 66 320 2.0 8.0 0.00 0.50 0.47 49 1016.3
20190419010831 67 338 2.0 8.0 0.00 0.50 0.47 46 1016.1